Location: Sternwarte ZA, Rosenfeld-Brittheim
(48.2889°N, 8.6789°E)
Time: 09:51:22
(UTC+02:00)

ISS - Pass Details

Date: 23 May 2018
Orbit: 402 x 407 km, 51.6° (Epoch: 27 May)

Event Time Altitude Azimuth Distance (km) Brightness Sun altitude
Rises 23:42:45 0° 266° (W) 2,318 0.3 -17.5°
Reaches altitude 10° 23:44:52 10° 272° (W) 1,459 -0.7 -17.7°
Maximum altitude 23:48:04 51° 350° (N) 518 -2.9 -17.9°
Drops below altitude 10° 23:51:16 10° 67° (ENE) 1,460 -1.0 -18.1°
Sets 23:53:24 0° 73° (ENE) 2,320 0.0 -18.2°
